Year,Month,Day,Hour,Minute,Value (Times are PST for temperature in C)
2014,04,19,00,00,9.30
2014,04,19,00,01,9.30
2014,04,19,00,02,9.30
2014,04,19,00,03,9.30
2014,04,19,00,04,9.30
2014,04,19,00,05,9.30
2014,04,19,00,06,9.30
2014,04,19,00,07,9.30
2014,04,19,00,08,9.30
2014,04,19,00,09,9.30
2014,04,19,00,10,9.30
2014,04,19,00,11,9.30
2014,04,19,00,12,9.30
2014,04,19,00,13,9.30
2014,04,19,00,14,9.30
2014,04,19,00,15,9.30
2014,04,19,00,16,9.30
2014,04,19,00,17,9.30
2014,04,19,00,18,9.30
2014,04,19,00,19,9.30
2014,04,19,00,20,9.30
2014,04,19,00,21,9.30
2014,04,19,00,22,9.20
2014,04,19,00,23,9.20
2014,04,19,00,24,9.20
2014,04,19,00,25,9.20
2014,04,19,00,26,9.20
2014,04,19,00,27,9.20
2014,04,19,00,28,9.20
2014,04,19,00,29,9.20
2014,04,19,00,30,9.20
2014,04,19,00,31,9.20
2014,04,19,00,32,9.20
2014,04,19,00,33,9.10
2014,04,19,00,34,9.10
2014,04,19,00,35,9.10
2014,04,19,00,36,9.10
2014,04,19,00,37,9.10
2014,04,19,00,38,9.10
2014,04,19,00,39,9.10
2014,04,19,00,40,9.10
2014,04,19,00,41,9.10
2014,04,19,00,42,9.10
2014,04,19,00,43,9.10
2014,04,19,00,44,9.10
2014,04,19,00,45,9.10
2014,04,19,00,46,9.10
2014,04,19,00,47,9.10
2014,04,19,00,48,9.10
2014,04,19,00,49,9.10
2014,04,19,00,50,9.10
2014,04,19,00,51,9.10
2014,04,19,00,52,9.10
2014,04,19,00,53,9.10
2014,04,19,00,54,9.10
2014,04,19,00,55,9.10
2014,04,19,00,56,9.10
2014,04,19,00,57,9.10
2014,04,19,00,58,9.10
2014,04,19,00,59,9.10
2014,04,19,01,00,9.10
2014,04,19,01,01,9.10
2014,04,19,01,02,9.10
2014,04,19,01,03,9.10
2014,04,19,01,04,9.10
2014,04,19,01,05,9.10
2014,04,19,01,06,9.10
2014,04,19,01,07,9.10
2014,04,19,01,08,9.10
2014,04,19,01,09,9.10
2014,04,19,01,10,9.10
2014,04,19,01,11,9.20
2014,04,19,01,12,9.20
2014,04,19,01,13,9.20
2014,04,19,01,14,9.20
2014,04,19,01,15,9.20
2014,04,19,01,16,9.20
2014,04,19,01,17,9.20
2014,04,19,01,18,9.20
2014,04,19,01,19,9.20
2014,04,19,01,20,9.20
2014,04,19,01,21,9.20
2014,04,19,01,22,9.20
2014,04,19,01,23,9.20
2014,04,19,01,24,9.20
2014,04,19,01,25,9.20
2014,04,19,01,26,9.20
2014,04,19,01,27,9.20
2014,04,19,01,28,9.20
2014,04,19,01,29,9.20
2014,04,19,01,30,9.20
2014,04,19,01,31,9.20
2014,04,19,01,32,9.20
2014,04,19,01,33,9.20
2014,04,19,01,34,9.20
2014,04,19,01,35,9.20
2014,04,19,01,36,9.20
2014,04,19,01,37,9.20
2014,04,19,01,38,9.20
2014,04,19,01,39,9.20
2014,04,19,01,40,9.10
2014,04,19,01,41,9.10
2014,04,19,01,42,9.20
2014,04,19,01,43,9.20
2014,04,19,01,44,9.10
2014,04,19,01,45,9.10
2014,04,19,01,49,9.10
2014,04,19,01,50,9.10
2014,04,19,01,51,9.10
2014,04,19,01,52,9.10
2014,04,19,01,53,9.10
2014,04,19,01,54,9.10
2014,04,19,01,55,9.10
2014,04,19,01,56,9.10
2014,04,19,01,57,9.10
2014,04,19,01,58,9.10
2014,04,19,01,59,9.10
2014,04,19,02,00,9.00
2014,04,19,02,01,9.00
2014,04,19,02,02,9.00
2014,04,19,02,03,9.00
2014,04,19,02,04,9.00
2014,04,19,02,05,9.00
2014,04,19,02,06,9.00
2014,04,19,02,07,9.00
2014,04,19,02,08,9.00
2014,04,19,02,09,9.00
2014,04,19,02,10,9.00
2014,04,19,02,11,9.00
2014,04,19,02,12,9.00
2014,04,19,02,13,9.00
2014,04,19,02,14,9.00
2014,04,19,02,15,9.00
2014,04,19,02,16,9.00
2014,04,19,02,17,9.00
2014,04,19,02,18,9.00
2014,04,19,02,19,9.00
2014,04,19,02,20,9.00
2014,04,19,02,21,9.00
2014,04,19,02,22,9.00
2014,04,19,02,23,9.00
2014,04,19,02,24,9.00
2014,04,19,02,25,9.00
2014,04,19,02,26,9.00
2014,04,19,02,27,9.00
2014,04,19,02,28,9.00
2014,04,19,02,29,9.00
2014,04,19,02,30,9.00
2014,04,19,02,31,9.00
2014,04,19,02,32,9.00
2014,04,19,02,33,9.00
2014,04,19,02,34,9.00
2014,04,19,02,35,9.00
2014,04,19,02,36,9.00
2014,04,19,02,37,8.90
2014,04,19,02,38,8.90
2014,04,19,02,39,8.90
2014,04,19,02,40,8.90
2014,04,19,02,41,8.90
2014,04,19,02,42,8.90
2014,04,19,02,43,8.90
2014,04,19,02,44,8.90
2014,04,19,02,45,8.90
2014,04,19,02,46,8.90
2014,04,19,02,47,8.90
2014,04,19,02,48,8.90
2014,04,19,02,49,8.90
2014,04,19,02,50,8.90
2014,04,19,02,51,8.90
2014,04,19,02,52,8.90
2014,04,19,02,53,8.90
2014,04,19,02,54,8.90
2014,04,19,02,55,8.90
2014,04,19,02,56,8.90
2014,04,19,02,57,8.90
2014,04,19,02,58,8.90
2014,04,19,02,59,8.80
2014,04,19,03,00,8.80
2014,04,19,03,01,8.80
2014,04,19,03,02,8.80
2014,04,19,03,03,8.80
2014,04,19,03,04,8.80
2014,04,19,03,05,8.80
2014,04,19,03,06,8.90
2014,04,19,03,07,8.90
2014,04,19,03,08,8.90
2014,04,19,03,09,8.90
2014,04,19,03,10,8.90
2014,04,19,03,11,8.90
2014,04,19,03,12,8.90
2014,04,19,03,13,8.90
2014,04,19,03,14,8.90
2014,04,19,03,15,8.90
2014,04,19,03,16,8.90
2014,04,19,03,17,8.90
2014,04,19,03,18,8.90
2014,04,19,03,19,8.90
2014,04,19,03,20,8.90
2014,04,19,03,21,9.00
2014,04,19,03,22,8.90
2014,04,19,03,23,8.90
2014,04,19,03,24,9.00
2014,04,19,03,25,8.90
2014,04,19,03,26,8.90
2014,04,19,03,27,8.90
2014,04,19,03,28,8.90
2014,04,19,03,29,8.90
2014,04,19,03,30,8.90
2014,04,19,03,31,8.90
2014,04,19,03,32,8.90
2014,04,19,03,33,8.90
2014,04,19,03,34,8.90
2014,04,19,03,35,8.90
2014,04,19,03,36,8.90
2014,04,19,03,37,8.90
2014,04,19,03,38,8.90
2014,04,19,03,39,8.90
2014,04,19,03,40,8.90
2014,04,19,03,41,8.90
2014,04,19,03,42,8.90
2014,04,19,03,43,8.90
2014,04,19,03,44,8.90
2014,04,19,03,45,8.90
2014,04,19,03,46,8.90
2014,04,19,03,47,8.90
2014,04,19,03,48,8.90
2014,04,19,03,49,8.90
2014,04,19,03,50,8.90
2014,04,19,03,51,8.90
2014,04,19,03,52,8.90
2014,04,19,03,53,8.90
2014,04,19,03,54,8.90
2014,04,19,03,55,8.90
2014,04,19,03,56,8.90
2014,04,19,03,57,8.90
2014,04,19,03,58,8.90
2014,04,19,03,59,8.90
2014,04,19,04,00,8.90
2014,04,19,04,01,8.90
2014,04,19,04,02,8.90
2014,04,19,04,03,8.90
2014,04,19,04,04,8.90
2014,04,19,04,05,8.90
2014,04,19,04,06,8.90
2014,04,19,04,07,8.90
2014,04,19,04,08,8.90
2014,04,19,04,09,8.90
2014,04,19,04,10,8.90
2014,04,19,04,11,8.90
2014,04,19,04,12,8.90
2014,04,19,04,13,8.90
2014,04,19,04,14,8.90
2014,04,19,04,15,8.80
2014,04,19,04,16,8.80
2014,04,19,04,17,8.90
2014,04,19,04,18,8.90
2014,04,19,04,19,8.90
2014,04,19,04,20,8.80
2014,04,19,04,21,8.80
2014,04,19,04,22,8.80
2014,04,19,04,23,8.80
2014,04,19,04,24,8.80
2014,04,19,04,25,8.80
2014,04,19,04,26,8.80
2014,04,19,04,27,8.80
2014,04,19,04,28,8.80
2014,04,19,04,29,8.80
2014,04,19,04,30,8.80
2014,04,19,04,31,8.80
2014,04,19,04,32,8.80
2014,04,19,04,33,8.80
2014,04,19,04,34,8.80
2014,04,19,04,35,8.80
2014,04,19,04,36,8.80
2014,04,19,04,37,8.80
2014,04,19,04,38,8.80
2014,04,19,04,39,8.80
2014,04,19,04,40,8.80
2014,04,19,04,41,8.80
2014,04,19,04,42,8.80
2014,04,19,04,43,8.80
2014,04,19,04,44,8.80
2014,04,19,04,45,8.80
2014,04,19,04,46,8.80
2014,04,19,04,47,8.80
2014,04,19,04,48,8.80
2014,04,19,04,49,8.80
2014,04,19,04,50,8.80
2014,04,19,04,51,8.80
2014,04,19,04,52,8.80
2014,04,19,04,53,8.80
2014,04,19,04,54,8.80
2014,04,19,04,55,8.80
2014,04,19,04,56,8.80
2014,04,19,04,57,8.80
2014,04,19,04,58,8.80
2014,04,19,04,59,8.90
2014,04,19,05,00,8.90
2014,04,19,05,01,8.90
2014,04,19,05,02,8.90
2014,04,19,05,03,8.90
2014,04,19,05,04,8.90
2014,04,19,05,05,8.90
2014,04,19,05,06,8.90
2014,04,19,05,07,8.90
2014,04,19,05,08,8.90
2014,04,19,05,09,8.80
2014,04,19,05,10,8.80
2014,04,19,05,11,8.80
2014,04,19,05,12,8.80
2014,04,19,05,13,8.70
2014,04,19,05,14,8.70
2014,04,19,05,15,8.70
2014,04,19,05,16,8.70
2014,04,19,05,17,8.60
2014,04,19,05,18,8.60
2014,04,19,05,19,8.60
2014,04,19,05,20,8.50
2014,04,19,05,21,8.50
2014,04,19,05,22,8.40
2014,04,19,05,23,8.30
2014,04,19,05,24,8.30
2014,04,19,05,25,8.20
2014,04,19,05,26,8.10
2014,04,19,05,27,8.10
2014,04,19,05,28,8.10
2014,04,19,05,29,8.00
2014,04,19,05,30,8.00
2014,04,19,05,31,7.90
2014,04,19,05,32,7.90
2014,04,19,05,33,7.80
2014,04,19,05,34,7.80
2014,04,19,05,35,7.80
2014,04,19,05,36,7.80
2014,04,19,05,37,7.80
2014,04,19,05,38,7.70
2014,04,19,05,39,7.70
2014,04,19,05,40,7.70
2014,04,19,05,41,7.60
2014,04,19,05,42,7.60
2014,04,19,05,43,7.60
2014,04,19,05,44,7.50
2014,04,19,05,45,7.50
2014,04,19,05,46,7.50
2014,04,19,05,47,7.40
2014,04,19,05,48,7.40
2014,04,19,05,49,7.40
2014,04,19,05,50,7.30
2014,04,19,05,51,7.30
2014,04,19,05,52,7.30
2014,04,19,05,53,7.30
2014,04,19,05,54,7.30
2014,04,19,05,55,7.30
2014,04,19,05,56,7.20
2014,04,19,05,57,7.20
2014,04,19,05,58,7.20
2014,04,19,05,59,7.20
2014,04,19,06,00,7.20
2014,04,19,06,01,7.20
2014,04,19,06,02,7.20
2014,04,19,06,03,7.20
2014,04,19,06,04,7.20
2014,04,19,06,05,7.20
2014,04,19,06,06,7.20
2014,04,19,06,07,7.20
2014,04,19,06,08,7.20
2014,04,19,06,09,7.20
2014,04,19,06,10,7.20
2014,04,19,06,11,7.10
2014,04,19,06,12,7.10
2014,04,19,06,13,7.10
2014,04,19,06,14,7.10
2014,04,19,06,15,7.10
2014,04,19,06,16,7.10
2014,04,19,06,17,7.10
2014,04,19,06,18,7.00
2014,04,19,06,19,7.00
2014,04,19,06,20,7.00
2014,04,19,06,21,7.00
2014,04,19,06,22,7.00
2014,04,19,06,23,7.00
2014,04,19,06,24,7.00
2014,04,19,06,25,7.00
2014,04,19,06,26,7.00
2014,04,19,06,27,7.00
2014,04,19,06,28,7.00
2014,04,19,06,29,7.00
2014,04,19,06,30,7.00
2014,04,19,06,31,6.90
2014,04,19,06,32,6.90
2014,04,19,06,33,6.90
2014,04,19,06,34,6.90
2014,04,19,06,35,6.90
2014,04,19,06,36,6.90
2014,04,19,06,37,6.90
2014,04,19,06,38,6.90
2014,04,19,06,39,6.90
2014,04,19,06,40,6.90
2014,04,19,06,41,6.90
2014,04,19,06,42,6.90
2014,04,19,06,43,6.80
2014,04,19,06,44,6.80
2014,04,19,06,45,6.80
2014,04,19,06,46,6.80
2014,04,19,06,47,6.80
2014,04,19,06,48,6.80
2014,04,19,06,49,6.80
2014,04,19,06,50,6.90
2014,04,19,06,51,6.90
2014,04,19,06,52,6.90
2014,04,19,06,53,6.90
2014,04,19,06,54,7.00
2014,04,19,06,55,7.00
2014,04,19,06,56,7.00
2014,04,19,06,57,7.10
2014,04,19,06,58,7.10
2014,04,19,06,59,7.10
2014,04,19,07,00,7.10
2014,04,19,07,01,7.20
2014,04,19,07,02,7.20
2014,04,19,07,03,7.20
2014,04,19,07,04,7.20
2014,04,19,07,05,7.20
2014,04,19,07,06,7.20
2014,04,19,07,07,7.30
2014,04,19,07,08,7.30
2014,04,19,07,09,7.40
2014,04,19,07,10,7.40
2014,04,19,07,11,7.40
2014,04,19,07,12,7.40
2014,04,19,07,13,7.40
2014,04,19,07,14,7.40
2014,04,19,07,15,7.50
2014,04,19,07,16,7.50
2014,04,19,07,17,7.50
2014,04,19,07,18,7.60
2014,04,19,07,19,7.60
2014,04,19,07,20,7.60
2014,04,19,07,21,7.60
2014,04,19,07,22,7.60
2014,04,19,07,23,7.60
2014,04,19,07,24,7.60
2014,04,19,07,25,7.60
2014,04,19,07,26,7.60
2014,04,19,07,27,7.60
2014,04,19,07,28,7.60
2014,04,19,07,29,7.60
2014,04,19,07,30,7.60
2014,04,19,07,31,7.70
2014,04,19,07,32,7.70
2014,04,19,07,33,7.70
2014,04,19,07,34,7.70
2014,04,19,07,35,7.70
2014,04,19,07,36,7.70
2014,04,19,07,37,7.70
2014,04,19,07,38,7.70
2014,04,19,07,39,7.70
2014,04,19,07,40,7.70
2014,04,19,07,41,7.70
2014,04,19,07,42,7.70
2014,04,19,07,43,7.70
2014,04,19,07,44,7.70
2014,04,19,07,45,7.70
2014,04,19,07,46,7.80
2014,04,19,07,47,7.80
2014,04,19,07,48,7.80
2014,04,19,07,49,7.80
2014,04,19,07,50,7.80
2014,04,19,07,51,7.90
2014,04,19,07,52,7.90
2014,04,19,07,53,7.90
2014,04,19,07,54,7.90
2014,04,19,07,55,7.90
2014,04,19,07,56,7.90
2014,04,19,07,57,8.00
2014,04,19,07,58,8.00
2014,04,19,07,59,8.10
2014,04,19,08,00,8.10
2014,04,19,08,01,8.10
2014,04,19,08,02,8.10
2014,04,19,08,03,8.20
2014,04,19,08,04,8.20
2014,04,19,08,05,8.20
2014,04,19,08,06,8.20
2014,04,19,08,07,8.30
2014,04,19,08,08,8.30
2014,04,19,08,09,8.30
2014,04,19,08,10,8.30
2014,04,19,08,11,8.30
2014,04,19,08,12,8.30
2014,04,19,08,13,8.30
2014,04,19,08,14,8.30
2014,04,19,08,15,8.30
2014,04,19,08,16,8.30
2014,04,19,08,17,8.40
2014,04,19,08,18,8.40
2014,04,19,08,19,8.40
2014,04,19,08,20,8.40
2014,04,19,08,21,8.40
2014,04,19,08,22,8.40
2014,04,19,08,23,8.40
2014,04,19,08,24,8.40
2014,04,19,08,25,8.40
2014,04,19,08,26,8.40
2014,04,19,08,27,8.50
2014,04,19,08,28,8.50
2014,04,19,08,29,8.50
2014,04,19,08,30,8.60
2014,04,19,08,31,8.60
2014,04,19,08,32,8.60
2014,04,19,08,33,8.60
2014,04,19,08,34,8.60
2014,04,19,08,35,8.60
2014,04,19,08,36,8.60
2014,04,19,08,37,8.60
2014,04,19,08,38,8.70
2014,04,19,08,39,8.70
2014,04,19,08,40,8.70
2014,04,19,08,41,8.70
2014,04,19,08,42,8.70
2014,04,19,08,43,8.80
2014,04,19,08,44,8.80
2014,04,19,08,45,8.80
2014,04,19,08,46,8.80
2014,04,19,08,47,8.80
2014,04,19,08,48,8.80
2014,04,19,08,49,8.80
2014,04,19,08,50,8.80
2014,04,19,08,51,8.80
2014,04,19,08,52,8.80
2014,04,19,08,53,8.80
2014,04,19,08,54,8.80
2014,04,19,08,55,8.80
2014,04,19,08,56,8.70
2014,04,19,08,57,8.70
2014,04,19,08,58,8.70
2014,04,19,08,59,8.70
2014,04,19,09,00,8.70
2014,04,19,09,01,8.70
2014,04,19,09,02,8.70
2014,04,19,09,03,8.70
2014,04,19,09,04,8.70
2014,04,19,09,05,8.70
2014,04,19,09,06,8.70
2014,04,19,09,07,8.70
2014,04,19,09,08,8.70
2014,04,19,09,09,8.70
2014,04,19,09,10,8.70
2014,04,19,09,11,8.80
2014,04,19,09,12,8.80
2014,04,19,09,13,8.80
2014,04,19,09,14,8.80
2014,04,19,09,15,8.80
2014,04,19,09,16,8.80
2014,04,19,09,17,8.90
2014,04,19,09,18,8.90
2014,04,19,09,19,8.90
2014,04,19,09,20,8.90
2014,04,19,09,21,9.00
2014,04,19,09,22,9.00
2014,04,19,09,23,9.00
2014,04,19,09,24,9.10
2014,04,19,09,25,9.10
2014,04,19,09,26,9.10
2014,04,19,09,27,9.10
2014,04,19,09,28,9.10
2014,04,19,09,29,9.10
2014,04,19,09,30,9.10
2014,04,19,09,31,9.10
2014,04,19,09,32,9.10
2014,04,19,09,33,9.20
2014,04,19,09,34,9.20
2014,04,19,09,35,9.20
2014,04,19,09,36,9.20
2014,04,19,09,37,9.20
2014,04,19,09,38,9.30
2014,04,19,09,39,9.30
2014,04,19,09,40,9.40
2014,04,19,09,41,9.40
2014,04,19,09,42,9.50
2014,04,19,09,43,9.60
2014,04,19,09,44,9.60
2014,04,19,09,45,9.70
2014,04,19,09,46,9.70
2014,04,19,09,47,9.70
2014,04,19,09,48,9.70
2014,04,19,09,49,9.70
2014,04,19,09,50,9.80
2014,04,19,09,51,9.80
2014,04,19,09,52,9.80
2014,04,19,09,53,9.80
2014,04,19,09,54,9.80
2014,04,19,09,55,9.80
2014,04,19,09,56,9.80
2014,04,19,09,57,9.80
2014,04,19,09,58,9.80
2014,04,19,09,59,9.70
2014,04,19,10,00,9.70
2014,04,19,10,01,9.70
2014,04,19,10,02,9.70
2014,04,19,10,03,9.70
2014,04,19,10,04,9.70
2014,04,19,10,05,9.70
2014,04,19,10,06,9.70
2014,04,19,10,07,9.70
2014,04,19,10,08,9.70
2014,04,19,10,09,9.70
2014,04,19,10,10,9.70
2014,04,19,10,11,9.70
2014,04,19,10,12,9.70
2014,04,19,10,13,9.70
2014,04,19,10,14,9.70
2014,04,19,10,15,9.70
2014,04,19,10,16,9.70
2014,04,19,10,17,9.70
2014,04,19,10,18,9.70
2014,04,19,10,19,9.70
2014,04,19,10,20,9.70
2014,04,19,10,21,9.60
2014,04,19,10,22,9.60
2014,04,19,10,23,9.60
2014,04,19,10,24,9.60
2014,04,19,10,25,9.60
2014,04,19,10,26,9.60
2014,04,19,10,27,9.60
2014,04,19,10,28,9.60
2014,04,19,10,29,9.60
2014,04,19,10,30,9.60
2014,04,19,10,31,9.50
2014,04,19,10,32,9.50
2014,04,19,10,33,9.50
2014,04,19,10,34,9.50
2014,04,19,10,35,9.50
2014,04,19,10,36,9.40
2014,04,19,10,37,9.40
2014,04,19,10,38,9.40
2014,04,19,10,39,9.40
2014,04,19,10,40,9.40
2014,04,19,10,41,9.40
2014,04,19,10,42,9.40
2014,04,19,10,43,9.40
2014,04,19,10,44,9.40
2014,04,19,10,45,9.40
2014,04,19,10,46,9.40
2014,04,19,10,47,9.40
2014,04,19,10,48,9.40
2014,04,19,10,49,9.40
2014,04,19,10,50,9.40
2014,04,19,10,51,9.40
2014,04,19,10,52,9.40
2014,04,19,10,53,9.50
2014,04,19,10,54,9.50
2014,04,19,10,55,9.50
2014,04,19,10,56,9.50
2014,04,19,10,57,9.50
2014,04,19,10,58,9.60
2014,04,19,10,59,9.60
2014,04,19,11,00,9.60
2014,04,19,11,01,9.60
2014,04,19,11,02,9.70
2014,04,19,11,03,9.70
2014,04,19,11,04,9.70
2014,04,19,11,05,9.70
2014,04,19,11,06,9.70
2014,04,19,11,07,9.70
2014,04,19,11,08,9.80
2014,04,19,11,09,9.80
2014,04,19,11,10,9.80
2014,04,19,11,11,9.80
2014,04,19,11,12,9.80
2014,04,19,11,13,9.80
2014,04,19,11,14,9.80
2014,04,19,11,15,9.80
2014,04,19,11,16,9.80
2014,04,19,11,17,9.80
2014,04,19,11,18,9.80
2014,04,19,11,19,9.80
2014,04,19,11,20,9.80
2014,04,19,11,21,9.80
2014,04,19,11,22,9.80
2014,04,19,11,23,9.80
2014,04,19,11,24,9.90
2014,04,19,11,25,9.90
2014,04,19,11,26,9.90
2014,04,19,11,27,9.90
2014,04,19,11,28,9.90
2014,04,19,11,29,10.00
2014,04,19,11,30,10.00
2014,04,19,11,31,10.00
2014,04,19,11,32,10.10
2014,04,19,11,33,10.10
2014,04,19,11,34,10.10
2014,04,19,11,35,10.20
2014,04,19,11,36,10.20
2014,04,19,11,37,10.20
2014,04,19,11,38,10.20
2014,04,19,11,39,10.30
2014,04,19,11,40,10.30
2014,04,19,11,41,10.30
2014,04,19,11,42,10.30
2014,04,19,11,43,10.30
2014,04,19,11,44,10.40
2014,04,19,11,45,10.40
2014,04,19,11,46,10.40
2014,04,19,11,47,10.40
2014,04,19,11,48,10.40
2014,04,19,11,49,10.40
2014,04,19,11,50,10.40
2014,04,19,11,51,10.40
2014,04,19,11,52,10.40
2014,04,19,11,53,10.40
2014,04,19,11,54,10.40
2014,04,19,11,55,10.40
2014,04,19,11,56,10.40
2014,04,19,11,57,10.40
2014,04,19,11,58,10.40
2014,04,19,11,59,10.40
2014,04,19,12,00,10.40
2014,04,19,12,01,10.40
2014,04,19,12,02,10.40
2014,04,19,12,03,10.40
2014,04,19,12,04,10.40
2014,04,19,12,05,10.40
2014,04,19,12,06,10.40
2014,04,19,12,07,10.40
2014,04,19,12,08,10.40
2014,04,19,12,09,10.40
2014,04,19,12,10,10.40
2014,04,19,12,11,10.40
2014,04,19,12,12,10.30
2014,04,19,12,13,10.30
2014,04,19,12,14,10.30
2014,04,19,12,15,10.30
2014,04,19,12,16,10.30
2014,04,19,12,17,10.20
2014,04,19,12,18,10.20
2014,04,19,12,19,10.20
2014,04,19,12,20,10.20
2014,04,19,12,21,10.20
2014,04,19,12,22,10.20
2014,04,19,12,23,10.20
2014,04,19,12,24,10.10
2014,04,19,12,25,10.10
2014,04,19,12,26,10.10
2014,04,19,12,27,10.10
2014,04,19,12,28,10.10
2014,04,19,12,29,10.10
2014,04,19,12,30,10.00
2014,04,19,12,31,10.00
2014,04,19,12,32,10.00
2014,04,19,12,33,10.00
2014,04,19,12,34,10.00
2014,04,19,12,35,10.00
2014,04,19,12,36,10.10
2014,04,19,12,37,10.00
2014,04,19,12,38,10.10
2014,04,19,12,39,10.10
2014,04,19,12,40,10.10
2014,04,19,12,41,10.10
2014,04,19,12,42,10.10
2014,04,19,12,43,10.00
2014,04,19,12,44,10.00
2014,04,19,12,45,10.10
2014,04,19,12,46,10.10
2014,04,19,12,47,10.10
2014,04,19,12,48,10.00
2014,04,19,12,49,10.10
2014,04,19,12,50,10.10
2014,04,19,12,51,10.10
2014,04,19,12,52,10.00
2014,04,19,12,53,10.00
2014,04,19,12,54,10.00
2014,04,19,12,55,10.00
2014,04,19,12,56,10.00
2014,04,19,12,57,10.00
2014,04,19,12,58,10.00
2014,04,19,12,59,10.00
2014,04,19,13,00,10.10
2014,04,19,13,01,10.10
2014,04,19,13,02,10.10
2014,04,19,13,03,10.10
2014,04,19,13,04,10.20
2014,04,19,13,05,10.20
2014,04,19,13,06,10.20
2014,04,19,13,07,10.20
2014,04,19,13,08,10.20
2014,04,19,13,09,10.20
2014,04,19,13,10,10.20
2014,04,19,13,11,10.30
2014,04,19,13,12,10.30
2014,04,19,13,13,10.30
2014,04,19,13,14,10.40
2014,04,19,13,15,10.40
2014,04,19,13,16,10.50
2014,04,19,13,17,10.50
2014,04,19,13,18,10.60
2014,04,19,13,19,10.70
2014,04,19,13,20,10.70
2014,04,19,13,21,10.80
2014,04,19,13,22,10.90
2014,04,19,13,23,10.90
2014,04,19,13,24,11.00
2014,04,19,13,25,11.10
2014,04,19,13,26,11.30
2014,04,19,13,27,11.40
2014,04,19,13,28,11.50
2014,04,19,13,29,11.60
2014,04,19,13,30,11.60
2014,04,19,13,31,11.60
2014,04,19,13,32,11.70
2014,04,19,13,33,11.80
2014,04,19,13,34,11.80
2014,04,19,13,35,11.90
2014,04,19,13,36,12.00
2014,04,19,13,37,12.00
2014,04,19,13,38,12.10
2014,04,19,13,39,12.20
2014,04,19,13,40,12.20
2014,04,19,13,41,12.20
2014,04,19,13,42,12.30
2014,04,19,13,43,12.40
2014,04,19,13,44,12.40
2014,04,19,13,45,12.50
2014,04,19,13,46,12.50
2014,04,19,13,47,12.40
2014,04,19,13,48,12.30
2014,04,19,13,49,12.30
2014,04,19,13,50,12.30
2014,04,19,13,51,12.20
2014,04,19,13,52,12.20
2014,04,19,13,53,12.10
2014,04,19,13,54,12.10
2014,04,19,13,55,12.00
2014,04,19,13,56,11.80
2014,04,19,13,57,11.80
2014,04,19,13,58,11.70
2014,04,19,13,59,11.60
2014,04,19,14,00,11.60
2014,04,19,14,01,11.50
2014,04,19,14,02,11.50
2014,04,19,14,03,11.40
2014,04,19,14,04,11.40
2014,04,19,14,05,11.30
2014,04,19,14,06,11.30
2014,04,19,14,07,11.20
2014,04,19,14,08,11.10
2014,04,19,14,09,11.10
2014,04,19,14,10,11.00
2014,04,19,14,11,10.90
2014,04,19,14,12,10.90
2014,04,19,14,13,10.90
2014,04,19,14,14,10.80
2014,04,19,14,15,10.80
2014,04,19,14,16,10.80
2014,04,19,14,17,10.80
2014,04,19,14,18,10.70
2014,04,19,14,19,10.70
2014,04,19,14,20,10.70
2014,04,19,14,21,10.70
2014,04,19,14,22,10.70
2014,04,19,14,23,10.70
2014,04,19,14,24,10.60
2014,04,19,14,25,10.60
2014,04,19,14,26,10.60
2014,04,19,14,27,10.60
2014,04,19,14,28,10.60
2014,04,19,14,29,10.60
2014,04,19,14,30,10.60
2014,04,19,14,31,10.60
2014,04,19,14,32,10.60
2014,04,19,14,33,10.60
2014,04,19,14,34,10.60
2014,04,19,14,35,10.60
2014,04,19,14,36,10.50
2014,04,19,14,37,10.50
2014,04,19,14,38,10.50
2014,04,19,14,39,10.40
2014,04,19,14,40,10.40
2014,04,19,14,41,10.40
2014,04,19,14,42,10.40
2014,04,19,14,43,10.40
2014,04,19,14,44,10.40
2014,04,19,14,45,10.40
2014,04,19,14,46,10.50
2014,04,19,14,47,10.40
2014,04,19,14,48,10.40
2014,04,19,14,49,10.40
2014,04,19,14,50,10.40
2014,04,19,14,51,10.40
2014,04,19,14,52,10.40
2014,04,19,14,53,10.40
2014,04,19,14,54,10.40
2014,04,19,14,55,10.40
2014,04,19,14,56,10.40
2014,04,19,14,57,10.40
2014,04,19,14,58,10.40
2014,04,19,14,59,10.40
2014,04,19,15,00,10.30
2014,04,19,15,01,10.30
2014,04,19,15,02,10.30
2014,04,19,15,03,10.30
2014,04,19,15,04,10.20
2014,04,19,15,05,10.20
2014,04,19,15,06,10.20
2014,04,19,15,07,10.10
2014,04,19,15,08,10.10
2014,04,19,15,09,10.10
2014,04,19,15,10,10.10
2014,04,19,15,11,10.00
2014,04,19,15,12,10.00
2014,04,19,15,13,10.00
2014,04,19,15,14,9.90
2014,04,19,15,15,9.90
2014,04,19,15,16,9.80
2014,04,19,15,17,9.80
2014,04,19,15,18,9.70
2014,04,19,15,19,9.70
2014,04,19,15,20,9.70
2014,04,19,15,21,9.70
2014,04,19,15,22,9.70
2014,04,19,15,23,9.70
2014,04,19,15,24,9.80
2014,04,19,15,25,9.80
2014,04,19,15,26,9.80
2014,04,19,15,27,9.80
2014,04,19,15,28,9.80
2014,04,19,15,29,9.70
2014,04,19,15,30,9.70
2014,04,19,15,31,9.60
2014,04,19,15,32,9.60
2014,04,19,15,33,9.60
2014,04,19,15,34,9.60
2014,04,19,15,35,9.60
2014,04,19,15,36,9.60
2014,04,19,15,37,9.60
2014,04,19,15,38,9.50
2014,04,19,15,39,9.50
2014,04,19,15,40,9.40
2014,04,19,15,41,9.40
2014,04,19,15,42,9.30
2014,04,19,15,43,9.30
2014,04,19,15,44,9.30
2014,04,19,15,45,9.30
2014,04,19,15,46,9.30
2014,04,19,15,47,9.30
2014,04,19,15,48,9.30
2014,04,19,15,49,9.30
2014,04,19,15,50,9.30
2014,04,19,15,51,9.30
2014,04,19,15,52,9.30
2014,04,19,15,53,9.30
2014,04,19,15,54,9.30
2014,04,19,15,55,9.30
2014,04,19,15,56,9.30
2014,04,19,15,57,9.30
2014,04,19,15,58,9.30
2014,04,19,15,59,9.30
2014,04,19,16,00,9.30
2014,04,19,16,01,9.30
2014,04,19,16,02,9.30
2014,04,19,16,03,9.30
2014,04,19,16,04,9.30
2014,04,19,16,05,9.30
2014,04,19,16,06,9.30
2014,04,19,16,07,9.30
2014,04,19,16,08,9.30
2014,04,19,16,09,9.30
2014,04,19,16,10,9.30
2014,04,19,16,11,9.30
2014,04,19,16,12,9.30
2014,04,19,16,13,9.30
2014,04,19,16,14,9.30
2014,04,19,16,15,9.30
2014,04,19,16,16,9.30
2014,04,19,16,17,9.40
2014,04,19,16,18,9.40
2014,04,19,16,19,9.40
2014,04,19,16,20,9.40
2014,04,19,16,21,9.40
2014,04,19,16,22,9.40
2014,04,19,16,23,9.40
2014,04,19,16,24,9.50
2014,04,19,16,25,9.50
2014,04,19,16,26,9.50
2014,04,19,16,27,9.50
2014,04,19,16,28,9.50
2014,04,19,16,29,9.60
2014,04,19,16,30,9.60
2014,04,19,16,31,9.60
2014,04,19,16,32,9.50
2014,04,19,16,33,9.50
2014,04,19,16,34,9.50
2014,04,19,16,35,9.60
2014,04,19,16,36,9.60
2014,04,19,16,37,9.60
2014,04,19,16,38,9.60
2014,04,19,16,39,9.60
2014,04,19,16,40,9.60
2014,04,19,16,41,9.60
2014,04,19,16,42,9.60
2014,04,19,16,43,9.60
2014,04,19,16,44,9.60
2014,04,19,16,45,9.60
2014,04,19,16,46,9.60
2014,04,19,16,47,9.60
2014,04,19,16,48,9.60
2014,04,19,16,49,9.60
2014,04,19,16,50,9.50
2014,04,19,16,51,9.50
2014,04,19,16,52,9.50
2014,04,19,16,53,9.50
2014,04,19,16,54,9.50
2014,04,19,16,55,9.50
2014,04,19,16,56,9.50
2014,04,19,16,57,9.50
2014,04,19,16,58,9.50
2014,04,19,16,59,9.50
2014,04,19,17,00,9.50
2014,04,19,17,01,9.50
2014,04,19,17,02,9.50
2014,04,19,17,03,9.50
2014,04,19,17,04,9.50
2014,04,19,17,05,9.50
2014,04,19,17,06,9.50
2014,04,19,17,07,9.50
2014,04,19,17,08,9.50
2014,04,19,17,09,9.50
2014,04,19,17,10,9.50
2014,04,19,17,11,9.40
2014,04,19,17,12,9.40
2014,04,19,17,13,9.40
2014,04,19,17,14,9.40
2014,04,19,17,15,9.40
2014,04,19,17,16,9.40
2014,04,19,17,17,9.40
2014,04,19,17,18,9.40
2014,04,19,17,19,9.40
2014,04,19,17,20,9.40
2014,04,19,17,21,9.40
2014,04,19,17,22,9.40
2014,04,19,17,23,9.40
2014,04,19,17,24,9.40
2014,04,19,17,25,9.40
2014,04,19,17,26,9.40
2014,04,19,17,27,9.40
2014,04,19,17,28,9.50
2014,04,19,17,29,9.50
2014,04,19,17,30,9.50
2014,04,19,17,31,9.50
2014,04,19,17,32,9.50
2014,04,19,17,33,9.50
2014,04,19,17,34,9.50
2014,04,19,17,35,9.50
2014,04,19,17,36,9.50
2014,04,19,17,37,9.50
2014,04,19,17,38,9.60
2014,04,19,17,39,9.60
2014,04,19,17,40,9.50
2014,04,19,17,41,9.60
2014,04,19,17,42,9.60
2014,04,19,17,43,9.60
2014,04,19,17,44,9.60
2014,04,19,17,45,9.60
2014,04,19,17,46,9.60
2014,04,19,17,47,9.60
2014,04,19,17,48,9.60
2014,04,19,17,49,9.60
2014,04,19,17,50,9.60
2014,04,19,17,51,9.60
2014,04,19,17,52,9.60
2014,04,19,17,53,9.60
2014,04,19,17,54,9.60
2014,04,19,17,55,9.60
2014,04,19,17,56,9.60
2014,04,19,17,57,9.70
2014,04,19,17,58,9.70
2014,04,19,17,59,9.70